Location: Linate
(45.4500°N, 9.2667°E)
Time: 13:29:54
(UTC+00:00)

Daily predictions for brighter satellites

Satellite Brightness Start Highest point End
(mag) Time Altitude Azimuth Time Altitude Azimuth Time Altitude Azimuth
Cosmos 1340 Rocket 3.8 16:36:11 10° NNE 16:39:29 25° ENE 16:42:46 10° SE
SL-16 R/B 3.8 16:37:51 10° N 16:40:48 14° NE 16:43:43 10° ENE
KORONAS-FOTON 3.9 16:37:25 10° S 16:41:11 85° W 16:44:59 10° N
Meteor 2-5 Rocket 3.7 16:35:43 10° S 16:41:13 82° E 16:46:50 10° NNE
AQUARIUS 4.1 16:38:22 10° SSE 16:42:50 71° ENE 16:47:19 10° N
ATLAS 5 CENTAUR R/B 2.5 16:38:46 10° WSW 16:42:51 44° NW 16:47:26 10° NNE
PSLV R/B 3.9 16:39:37 10° NNE 16:43:42 81° ESE 16:47:48 10° SSW
Cosmos 2058 Rocket 3.3 16:40:05 10° NNW 16:44:28 78° W 16:48:49 10° S
Cosmos 1242 Rocket 2.9 16:41:35 10° SSE 16:44:52 40° E 16:48:14 10° NNE
Starlink AR 2.4 16:42:24 10° WSW 16:44:54 72° NNW 16:47:25 10° NE
Cosmos 1271 Rocket 2.8 16:41:32 10° S 16:45:10 55° E 16:48:51 10° NNE
SL-14 R/B 3.7 16:42:16 10° SSE 16:46:04 42° E 16:49:50 10° NNE
Cosmos 2074 Rocket 4.0 16:39:59 10° S 16:46:15 73° E 16:52:32 10° NNE
Cosmos 2219 4.3 16:42:20 10° SSE 16:46:47 25° ESE 16:51:15 10° NE
Cosmos 1626 2.6 16:44:38 10° SSE 16:48:04 38° E 16:51:32 10° NNE
Cosmos 1461 3.0 16:45:14 10° NW 16:49:35 81° NE 16:54:04 10° SE
USA 234 3.7 16:43:56 10° SE 16:50:26 69° SW 16:56:58 10° NW
YAOGAN 6 3.3 16:47:36 10° SE 16:50:57 33° ENE 16:54:17 10° N
NOAA 12 4.1 16:46:26 10° SSE 16:51:35 64° ENE 16:56:47 10° N
Cosmos 2150 Rocket 4.0 16:47:05 10° SSW 16:52:14 82° ESE 16:57:25 10° NNE
Cosmos 1602 Rocket 4.0 16:48:19 10° SSE 16:52:27 41° E 16:56:34 10° NNE
CZ-4C R/B 3.0 16:46:29 10° NW 16:53:34 65° NE 17:01:42 10° SE
IRS-1C Rocket 4.2 16:48:41 10° SSE 16:53:56 86° WSW 16:59:14 10° NNW
Cosmos 2322 4.3 16:49:42 10° NNW 16:55:18 63° WSW 17:00:52 10° S
CORIOLIS 4.2 16:51:28 10° SSE 16:56:51 87° ENE 17:02:15 10° NNW
Cosmos 1939 Rocket 4.2 16:59:30 10° ESE 17:02:09 18° ENE 17:04:49 10° NNE
Cosmos 2297 Rocket 3.3 16:57:55 10° SSE 17:02:15 23° ESE 17:06:33 10° NE
COSMO-SKYMED 1 3.2 16:58:23 10° NNE 17:02:24 35° E 17:06:23 10° SSE
Cosmos 1980 4.1 16:57:42 10° NNW 17:03:06 41° NE 17:08:27 10° SE
Starlink AQ 3.1 17:01:05 10° WSW 17:03:58 55° NNW 17:06:26 13° NE
Starlink AS 3.2 17:03:21 10° WSW 17:06:14 52° NNW 17:08:36 14° NE
Starlink BA 3.2 17:03:35 10° WSW 17:06:28 52° NNW 17:08:49 14° NE
Starlink AU 3.2 17:03:49 10° WSW 17:06:41 52° NNW 17:09:01 14° NE
Cosmos 2360 Rocket 4.4 17:01:53 10° NW 17:06:43 30° WSW 17:11:31 10° SSW
Starlink AT 3.2 17:04:03 10° WSW 17:06:55 52° NNW 17:09:14 14° NE
H-2A R/B 3.7 17:03:13 10° S 17:06:57 52° W 17:10:46 10° NNW
Starlink BB 3.2 17:04:16 10° WSW 17:07:08 52° NNW 17:09:28 14° NE
Nadezhda 3 Rocket 4.0 17:00:58 10° N 17:07:14 67° E 17:13:31 10° SSE
Starlink BC 3.2 17:04:30 10° WSW 17:07:22 51° NNW 17:09:40 14° NE
Starlink BK 3.2 17:04:43 10° WSW 17:07:35 51° NNW 17:09:53 14° NE
Starlink AY 3.2 17:04:57 10° WSW 17:07:48 51° NNW 17:10:06 15° NE
Starlink AW 3.2 17:05:10 10° WSW 17:08:02 51° NNW 17:10:19 15° NE
Starlink BJ 3.2 17:05:23 10° WSW 17:08:15 51° NNW 17:10:31 15° NE
Starlink AV 3.2 17:05:36 10° WSW 17:08:28 50° NNW 17:10:44 15° NE
Cosmos 1125 Rocket 3.5 17:03:23 10° S 17:08:30 64° ESE 17:13:40 10° NNE
Starlink BD 3.3 17:05:50 10° WSW 17:08:41 50° NNW 17:10:57 15° NE
Starlink BE 3.3 17:06:01 10° WSW 17:08:53 50° NNW 17:11:08 15° NE
Starlink BM 3.3 17:06:16 10° WSW 17:09:08 50° NNW 17:11:22 15° NE
Starlink AX 3.3 17:06:29 10° WSW 17:09:21 50° NNW 17:11:35 15° NE
Cosmos 1758 Rocket 4.4 17:05:47 10° SSE 17:09:25 27° E 17:13:03 10° NNE
Meteor 2-1 Rocket 4.3 17:04:08 10° N 17:09:29 50° ENE 17:14:50 10° SSE
Starlink BH 3.3 17:06:44 10° WSW 17:09:35 49° NNW 17:11:49 15° NE
Starlink AZ 3.3 17:06:57 10° WSW 17:09:48 49° NNW 17:12:01 15° NE
Starlink BG 3.3 17:07:10 10° WSW 17:10:01 49° NNW 17:12:14 15° NE
Starlink BF 3.3 17:07:23 10° WSW 17:10:14 49° NNW 17:12:27 15° NE
Starlink BL 3.3 17:07:36 10° WSW 17:10:27 49° NNW 17:12:39 15° NE
Okean-O 2.6 17:06:03 10° SSE 17:10:28 74° ENE 17:14:55 10° N
Starlink AH 3.3 17:07:50 10° WSW 17:10:41 49° NNW 17:12:52 15° NE
Starlink AC 3.3 17:08:04 10° WSW 17:10:55 48° NNW 17:13:06 15° NE
Starlink X 3.3 17:08:17 10° WSW 17:11:08 48° NNW 17:13:18 16° NE
Starlink AE 3.3 17:08:28 10° WSW 17:11:19 48° NNW 17:13:29 16° NE
Starlink Z 3.3 17:08:45 10° WSW 17:11:36 48° NNW 17:13:45 16° NE
Starlink AK 3.3 17:08:58 10° WSW 17:11:49 48° NNW 17:13:57 16° NE
Starlink AL 3.3 17:09:12 10° WSW 17:12:02 47° NNW 17:14:10 16° NE
Starlink AD 3.3 17:09:25 10° WSW 17:12:16 47° NNW 17:14:23 16° NE
Starlink Y 3.4 17:09:52 10° WSW 17:12:43 47° NNW 17:14:49 16° NE
Starlink AG 3.4 17:10:08 10° WSW 17:12:58 47° NNW 17:15:03 16° NE
Starlink W 3.4 17:10:20 10° WSW 17:13:11 47° NNW 17:15:16 16° NE
Okean O Rocket 4.5 17:09:53 10° SW 17:13:17 22° W 17:16:43 10° NW
Starlink AJ 3.4 17:10:33 10° WSW 17:13:23 46° NNW 17:15:28 16° NE
Starlink AM 3.4 17:11:03 10° WSW 17:13:53 46° NNW 17:15:56 16° NE
Starlink AP 3.4 17:11:14 10° WSW 17:14:05 46° NNW 17:16:07 17° NE
Cosmos 2227 Rocket 3.2 17:09:43 10° SSE 17:14:19 26° ESE 17:18:07 13° NE
Starlink AA 3.4 17:11:29 10° WSW 17:14:20 46° NNW 17:16:22 17° NE
Starlink AF 3.4 17:11:41 10° WSW 17:14:31 45° NNW 17:16:33 17° NE
Cosmos 2219 Rocket 2.5 17:08:59 10° NNW 17:14:41 73° WSW 17:20:18 10° SSE
Starlink AB 3.4 17:11:55 10° WSW 17:14:45 45° NNW 17:16:46 17° NE
Starlink AN 3.4 17:12:09 10° W 17:15:00 45° NNW 17:17:00 17° NE
NOSS 0 Rocket 3.9 17:08:57 10° NNW 17:15:11 69° ENE 17:21:21 10° SE
Cosmos 1626 Rocket 3.5 17:10:52 10° S 17:15:12 89° W 17:19:34 10° N
COSMOS 2428 3.0 17:11:18 10° NNW 17:17:02 73° WSW 17:22:44 10° SSE
ATLAS CENTAUR R/B 3.5 17:17:27 10° NNE 17:18:05 10° NNE 17:18:38 10° NNE
TIMED 4.5 17:14:10 10° NNW 17:18:31 62° ENE 17:22:51 10° SSE
Timation 2 Rocket 4.0 17:12:44 10° SSW 17:18:49 85° WNW 17:25:12 10° NNE
Envisat 3.2 17:15:23 10° S 17:20:27 79° WSW 17:25:35 10° NNW
Starlink T 3.7 17:21:24 10° W 17:24:12 39° NNW 17:25:51 20° NE
Starlink N 3.7 17:22:40 10° W 17:25:26 39° NNW 17:27:02 20° NE
ISS -1.6 17:24:36 10° SSE 17:26:18 13° SE 17:26:49 13° ESE
Cosmos 1269 Rocket 4.0 17:21:32 10° NNW 17:26:46 59° ENE 17:31:58 10° SE
Starlink Q 3.7 17:24:13 10° W 17:27:00 38° NNW 17:28:32 21° NE
Cosmos 2341 Rocket 4.1 17:21:53 10° SSE 17:28:04 55° E 17:34:15 10° NNE
Starlink P 3.7 17:25:34 10° W 17:28:21 37° NNW 17:29:49 21° NNE
CZ-4 R/B 1.4 17:25:14 10° SSE 17:29:11 59° ENE 17:33:15 10° N
Starlink U 3.8 17:26:55 10° W 17:29:40 36° NNW 17:31:07 22° NNE
SL-8 Rocket 4.4 17:24:35 10° SSE 17:30:26 42° E 17:36:17 10° NNE
Starlink B 3.8 17:28:17 10° W 17:31:03 36° NNW 17:32:26 22° NNE
CZ-4 R/B 4.3 17:27:41 10° SSE 17:31:48 73° ENE 17:35:55 10° N
Cosmos 1825 Rocket 3.8 17:30:57 10° SSE 17:35:05 44° E 17:39:14 10° NNE
Cosmos 1607 4.3 17:29:16 10° SW 17:35:20 62° NW 17:41:28 10° NNE
Starlink D 3.9 17:33:53 10° W 17:36:38 34° NNW 17:37:48 24° NNE
SJ 16-02 4.3 17:36:14 10° WNW 17:37:09 11° NW 17:38:04 10° NW
ADEOS Rocket 3.9 17:31:39 10° NNE 17:37:26 32° E 17:43:39 10° SSE
Cosmos 44 4.5 17:34:37 10° SSE 17:37:58 20° ESE 17:38:13 20° ESE
Starlink S 4.0 17:35:19 10° W 17:38:04 33° NNW 17:39:11 24° NNE
Starlink C 4.0 17:36:43 10° W 17:39:28 33° NNW 17:40:31 25° NNE
Starlink E 4.0 17:38:10 10° W 17:40:55 32° NNW 17:41:54 25° NNE
Starlink J 4.0 17:39:37 10° W 17:42:21 32° NNW 17:43:17 25° NNE
Starlink V 4.1 17:41:03 10° W 17:43:46 31° NNW 17:44:39 26° NNE
Starlink H 4.1 17:42:31 10° W 17:45:14 31° NNW 17:46:03 26° NNE
Starlink F 4.1 17:44:00 10° W 17:46:42 30° NNW 17:47:28 26° N
Meteor 2-17 Rocket 4.4 17:40:35 10° S 17:46:44 90° SW 17:52:55 10° N
Starlink G 4.1 17:45:27 10° W 17:48:09 30° NNW 17:48:51 26° N
Starlink L 4.1 17:46:55 10° W 17:49:37 29° NNW 17:50:15 27° N
CSL-04 Debris 4.0 17:44:49 10° SSE 17:50:10 75° ENE 17:55:35 10° NNW
Meteor 2-10 Rocket 3.7 17:45:15 10° N 17:50:30 50° ENE 17:55:31 10° SSE
SKYMED 2 3.8 17:46:10 10° N 17:50:31 72° WNW 17:54:50 10° SSW
Starlink A 4.1 17:48:24 10° W 17:51:05 29° NNW 17:51:40 27° N
ERBS 2.4 17:48:31 10° SSW 17:51:46 53° SE 17:52:10 49° ESE
Starlink R 4.1 17:49:53 10° W 17:52:34 28° NNW 17:53:05 27° N
Starlink K 4.2 17:51:20 10° W 17:54:00 28° NNW 17:54:28 27° N
Starlink M 4.2 17:52:45 10° W 17:55:26 28° NNW 17:55:49 27° N
Cosmos 724 4.2 17:52:07 10° SSW 17:58:06 80° ESE 18:01:55 23° NE
USA 267 4.2 17:54:03 18° NE 17:58:15 37° NNW 18:04:08 10° WNW
CZ-2D R/B 3.1 17:55:23 10° SSE 17:59:11 73° ENE 18:03:01 10° N
Cosmos 2218 Rocket 4.0 17:55:06 10° S 18:01:17 60° E 18:07:34 10° NNE
USA 116 3.0 18:02:58 55° NNE 18:03:35 89° ENE 18:06:42 10° SSW
Ariane Rocket 3.2 17:59:58 15° SE 18:03:51 45° ENE 18:08:41 10° N
Cosmos 2237 Rocket 2.3 17:59:38 10° NNW 18:05:17 76° WSW 18:10:53 10° SSE
Cosmos 2333 Rocket 4.3 18:00:45 10° NW 18:05:30 28° WSW 18:10:14 10° SSW
Shenzhou-11 Module 4.4 18:04:02 10° SSW 18:04:36 12° S 18:04:36 12° S
Cosmos 1339 Rocket 4.3 18:01:45 10° N 18:07:51 73° E 18:13:57 10° SSE
Cosmos 864 Rocket 4.4 18:03:48 10° S 18:09:49 62° E 18:15:52 10° NNE
YAOGAN 1 3.0 18:06:10 10° S 18:10:27 63° WSW 18:14:46 10° NNW
H-2A R/B 3.6 18:15:09 18° NNE 18:15:09 18° NNE 18:16:47 10° N
Meteor 1-21 Rocket 4.4 18:09:46 10° SSW 18:15:20 72° WNW 18:21:02 10° N
Cosmos 1328 3.9 18:13:26 10° S 18:16:54 60° SE 18:16:54 60° SE
CSL-04 Rocket 4.1 18:13:18 10° S 18:18:44 66° WSW 18:24:16 10° NNW
Cosmos-2242 3.3 18:15:22 10° NNW 18:19:40 66° W 18:23:55 10° S
MOS 1 4.4 18:19:37 46° E 18:20:17 48° ENE 18:25:44 10° N
Cosmos 1455 2.2 18:18:46 10° NNW 18:22:37 77° W 18:26:23 10° S
NOSS 2-1 (C) 4.4 18:17:52 10° NW 18:23:17 90° WSW 18:29:27 16° SE
Cosmos 2251 Rocket 3.6 18:19:05 10° NNW 18:24:11 54° ENE 18:24:11 54° ENE
SL-16 R/B 2.1 18:20:27 10° NNW 18:26:07 64° ENE 18:27:14 52° ESE
NOSS 2-1 (D) 4.5 18:21:40 10° NW 18:27:06 85° SW 18:33:20 16° SSE
Cosmos 1959 Rocket 4.4 18:21:58 10° S 18:28:09 89° WNW 18:34:19 10° N
ATLAS 5 CENTAUR R/B 4.2 18:26:29 10° NW 18:28:53 14° NNW 18:30:44 12° N
Cosmos 2219 3.8 18:25:04 10° SW 18:30:33 54° WNW 18:34:24 20° NNE
DELTA 2 R/B (1) 4.1 18:28:44 10° WSW 18:34:03 46° S 18:34:49 43° SSE
Cosmos 2082 3.5 18:28:34 10° SSW 18:34:08 69° ESE 18:34:39 65° ENE
Cosmos 1939 Rocket 4.1 18:33:06 10° S 18:36:47 40° W 18:40:32 10° NNW
Cosmos 2366 rocket 4.0 18:32:04 10° SSW 18:38:16 79° W 18:44:34 10° N
Cosmos 1953 Rocket 4.3 18:37:24 10° SSW 18:41:47 53° WNW 18:44:04 26° NNW
CZ-4C R/B 4.4 18:35:23 10° NW 18:42:03 37° WSW 18:49:25 10° S
Cosmos 2297 Rocket 2.7 18:40:18 10° SW 18:45:52 57° WNW 18:48:25 31° N
Cosmos 2227 Rocket 2.9 18:52:32 10° SW 18:58:02 51° WNW 18:59:59 36° N
ATLAS CENTAUR R/B 3.9 18:54:14 10° NNW 18:54:50 14° NNW 18:54:50 14° NNW
ISS -0.7 18:59:15 10° WSW 18:59:47 14° WSW 18:59:47 14° WSW
Cosmos 1727 Rocket 4.2 18:57:13 10° NNW 19:03:21 66° W 19:09:26 10° S
BREEZE-M DEB (TANK) 4.1 18:50:44 10° W 19:05:00 64° N 19:05:05 64° N
ADEOS Rocket 3.9 19:16:52 10° N 19:23:05 53° WNW 19:29:58 10° SW
Atlas Centaur 2 4.5 19:20:09 10° SSW 19:21:22 14° SSW 19:21:22 14° SSW
USA 267 4.5 19:41:23 31° NNW 19:41:23 31° NNW 19:45:57 10° NW
SL-16 R/B 4.4 20:05:36 10° NW 20:09:13 21° W 20:09:13 21° W
ATLAS 5 CENTAUR R/B 4.4 20:20:45 10° NW 20:55:43 10° SSE 20:55:55 10° SSE
